This is the latest recevied weather packets stored in our database for station/object NR5ON-13. If no packets are shown the sender has not sent any weather packets the latest 10 day(s).
| Time | Temp. | Humidity | Pressure | Rain* | Wind** | Luminosity | Snow |
|---|---|---|---|---|---|---|---|
| 1777867708 | 13.33° C | 45% | 1018.1 hPa | 0 mm | - | - | - |
| 1777867412 | 13.33° C | 47% | 1018.1 hPa | 0 mm | - | - | - |
| 1777867118 | 13.33° C | 49% | 1018.1 hPa | 0 mm | - | - | - |
| 1777866803 | 13.33° C | 47% | 1018 hPa | 0 mm | - | - | - |
| 1777866512 | 13.33° C | 45% | 1018 hPa | 0 mm | - | - | - |
| 1777866217 | 13.33° C | 42% | 1018 hPa | 0 mm | - | - | - |
| 1777865902 | 13.33° C | 40% | 1018.1 hPa | 0 mm | - | - | - |
| 1777865607 | 12.78° C | 36% | 1018 hPa | 0 mm | - | - | - |
| 1777865317 | 13.33° C | 34% | 1018 hPa | 0 mm | - | - | - |
| 1777865005 | 13.33° C | 34% | 1017.9 hPa | 0 mm | - | - | - |
| 1777864711 | 13.89° C | 33% | 1017.8 hPa | 0 mm | - | - | - |
| 1777864416 | 13.89° C | 32% | 1017.7 hPa | 0 mm | - | - | - |
| 1777864101 | 13.89° C | 31% | 1017.6 hPa | 0 mm | - | - | - |
| 1777863807 | 14.44° C | 30% | 1017.5 hPa | 0 mm | - | - | - |
| 1777863512 | 14.44° C | 30% | 1017.5 hPa | 0 mm | - | - | - |
| 1777863218 | 15° C | 30% | 1017.4 hPa | 0 mm | - | - | - |
| 1777862903 | 15° C | 29% | 1017.4 hPa | 0 mm | - | - | - |
| 1777862607 | 15° C | 28% | 1017.2 hPa | 0 mm | - | - | - |
| 1777862316 | 15.56° C | 28% | 1017.2 hPa | 0 mm | - | - | - |
| 1777862001 | 15.56° C | 28% | 1017.3 hPa | 0 mm | - | - | - |
| 1777861706 | 15.56° C | 28% | 1017.1 hPa | 0 mm | - | - | - |
| 1777861411 | 15.56° C | 28% | 1017.1 hPa | 0 mm | - | - | - |
| 1777861117 | 15.56° C | 27% | 1017.1 hPa | 0 mm | - | - | - |
| 1777860801 | 15.56° C | 27% | 1017.1 hPa | 0 mm | - | - | - |
| 1777860506 | 16.11° C | 27% | 1017.1 hPa | 0 mm | - | - | - |
* Rain latest hour (hover to see other rain measurements)
** Current wind speed in m/s (hover to see current wind gust speed)